FALCON 9 DEB (54107 NORAD) Tracking and Keplerian Element Data

This shows tracking and keplerian element data for the satellite.

Feedback or suggestion? Click here.




ElementValue
Catalog54107
NameFALCON 9 DEB
Epoch Orbit226
Epoch Day307.59448471
Epoch Year2022
RAAN76.2266
Inclination53.2146
Eccentricity0.002338
Argument of Perigee78.7156
Mean Anonmoly281.6515
Mean Motion16.29645652
Decay Rate0.03152218
L11 54107U 22136BJ 22307.59448471 .03152218 12096-4 63820-3 0 9993
L22 54107 53.2146 76.2266 0023380 78.7156 281.6515 16.29645652 2263



Live tracking and technical data element details for FALCON 9 DEB (NORAD 54107). FALCON 9 DEB can be tracked NOW for your location showing map with azimuth and elevation plus other details from your city location.







IsCatalogInMostPopularTable: catalog: 54107, numindb: 5
Update: records affected: 1



GetName: 54107 FALCON 9 DEB

Hit Count: updated at: Mon, 05 Jun 2023 00:37:54 GMT